User: anonymous   Login
Location: Ecklingerode
(51.5036°N, 10.3122°E)
Time: 12:11:51
(UTC+00:00)
Language:

FALCON 9 DEB - Orbit

View from above orbital plane
View from above orbital plane
View from above satellite
View from above satellite

Ground track
Ground track

The orbit data is extracted from the following two-line orbital elements,

1 46085U 20055BL  21022.71257961  .00008059  00000-0  10139-3 0  9999
2 46085  53.0107 191.3947 0012239 123.9377 236.2800 15.60636483 30875
Epoch (UTC): 22 January 2021 17:06:06
Eccentricity: 0.0012239
inclination: 53.0107°
perigee height: 377 km
apogee height: 394 km
right ascension of ascending node: 191.3947°
argument of perigee: 123.9377°
revolutions per day: 15.60636483
mean anomaly at epoch: 236.2800°
orbit number at epoch: 3087

The dashed part of the orbit path shows where the satellite is in the earth's shadow,  

DLR